Whidbey Island, WA

12:31 PM PST on November 18, 2017 (GMT -0800)
Whidbey Island Naval Air Station

Weather History for KNUW - December, 2012

Change the Weather History Date:

Wednesday, December 19, 2012

  Actual Average Record
Temperature  
Mean Temperature 39 °F -  
Max Temperature 42 °F 43 °F 55 °F (2003)
Min Temperature 36 °F 33 °F 10 °F (2008)
Degree Days  
Heating Degree Days 26    
Moisture  
Dew Point 34 °F    
Average Humidity 84    
Maximum Humidity 93    
Minimum Humidity 75    
Precipitation  
Precipitation 0.10 in - - ()
Sea Level Pressure  
Sea Level Pressure 29.67 in    
Wind  
Wind Speed 27 mph (SE)    
Max Wind Speed 39 mph    
Max Gust Speed 48 mph    
Visibility 8 miles    
Events Rain , Snow    
Averages and records for this station are not official NWS values.
T = Trace of Precipitation, MM = Missing Value Source: NWS Daily Summary

Daily Weather History Graph

Daily Weather History Graph

Search for Another Location

Airport or City:

Trip Planner

Search our weather history database for the weather conditions in past years. The results will help you decide how hot, cold, wet, or windy it might be!

Date:

Astronomy

Dec. 19, 2012 Rise Set
Actual Time 7:58 AM PST 4:17 PM PST
Civil Twilight 7:21 AM PST 4:54 PM PST
Nautical Twilight 6:41 AM PST 5:34 PM PST
Astronomical Twilight 6:03 AM PST 6:12 PM PST
Moon 11:38 AM PST (12/19) No Moon Set
Length of Visible Light 9h 32m
Length of Day
8h 19m
Waxing Crescent, 46% of the Moon is Illuminated
Dec 19
Waxing Crescent
Dec 19
First Quarter
Dec 28
Full
Jan 4
Last Quarter
Jan 11
New

Hourly Weather History & Observations

Time (PST) Temp. Windchill Dew Point Humidity Pressure Visibility Wind Dir Wind Speed Gust Speed Precip Events Conditions
12:56 AM 39.0 °F 28.0 °F 32.0 °F 76% 29.88 in 10.0 mi SE 25.3 mph 41.4 mph N/A   Mostly Cloudy
1:39 AM 37.4 °F 26.6 °F 32.0 °F 81% 29.86 in 8.0 mi SE 21.9 mph 34.5 mph 0.00 in Rain Light Rain
1:56 AM 37.0 °F 25.4 °F 32.0 °F 82% 29.85 in 10.0 mi SE 25.3 mph 34.5 mph 0.00 in Rain Light Rain
2:26 AM 37.4 °F 26.6 °F 30.2 °F 75% 29.82 in 10.0 mi SE 21.9 mph 31.1 mph 0.00 in   Overcast
2:56 AM 37.9 °F 27.1 °F 30.9 °F 76% 29.82 in 10.0 mi SE 23.0 mph 38.0 mph 0.00 in   Overcast
3:19 AM 37.4 °F 26.1 °F 30.2 °F 75% 29.80 in 9.0 mi SSE 24.2 mph 46.0 mph 0.00 in Rain , Snow Light Rain
3:56 AM 37.9 °F 26.6 °F 30.9 °F 76% 29.78 in 10.0 mi SE 25.3 mph 41.4 mph 0.00 in Rain , Snow Light Rain
4:56 AM 37.0 °F 24.7 °F 30.9 °F 79% 29.75 in 10.0 mi SE 28.8 mph 40.3 mph 0.01 in Rain Light Rain
5:56 AM 37.0 °F 23.9 °F 30.9 °F 79% 29.72 in 10.0 mi SE 33.4 mph 40.3 mph 0.00 in   Mostly Cloudy
6:35 AM 37.4 °F 24.8 °F 30.2 °F 75% 29.69 in 8.0 mi SE 31.1 mph 47.2 mph 0.00 in Rain , Snow Light Rain
6:56 AM 37.0 °F 23.7 °F 32.0 °F 82% 29.69 in 8.0 mi SE 34.5 mph 41.4 mph 0.00 in Rain Light Rain
7:12 AM 37.4 °F 24.8 °F 32.0 °F 81% 29.67 in 8.0 mi SE 31.1 mph 44.9 mph 0.00 in Rain , Snow Light Rain
7:56 AM 37.9 °F 25.5 °F 33.1 °F 83% 29.69 in 8.0 mi SE 31.1 mph 40.3 mph 0.00 in Rain Light Rain
8:56 AM 37.9 °F 24.7 °F 33.1 °F 83% 29.68 in 8.0 mi SE 35.7 mph 43.7 mph 0.00 in Rain Light Rain
9:24 AM 37.4 °F 25.0 °F 33.8 °F 87% 29.66 in 3.0 mi SE 29.9 mph 40.3 mph 0.01 in Rain , Snow Light Rain
9:56 AM 36.0 °F 23.5 °F 33.1 °F 89% 29.66 in 5.0 mi SE 27.6 mph 36.8 mph 0.01 in Rain Light Rain
10:24 AM 37.4 °F 24.4 °F 33.8 °F 87% 29.63 in 8.0 mi SE 33.4 mph 44.9 mph 0.01 in Rain , Snow Light Rain
10:56 AM 37.0 °F 25.1 °F 34.0 °F 89% 29.64 in 8.0 mi SE 26.5 mph 39.1 mph 0.01 in Rain Light Rain
11:21 AM 37.4 °F 25.0 °F 35.6 °F 93% 29.62 in 8.0 mi SE 29.9 mph 42.6 mph 0.00 in Rain , Snow Light Rain
11:40 AM 37.4 °F 26.1 °F 35.6 °F 93% 29.62 in 8.0 mi SE 24.2 mph 36.8 mph 0.00 in Rain Light Rain
11:56 AM 39.0 °F 28.5 °F 35.1 °F 86% 29.63 in 9.0 mi SE 23.0 mph 38.0 mph 0.00 in Rain Light Rain
12:56 PM 39.9 °F 28.6 °F 36.0 °F 86% 29.60 in 8.0 mi SE 28.8 mph 38.0 mph 0.01 in Rain Light Rain
1:17 PM 39.2 °F 27.8 °F 35.6 °F 87% 29.59 in 8.0 mi SE 27.6 mph 40.3 mph 0.00 in Rain Light Rain
1:56 PM 39.0 °F 27.0 °F 36.0 °F 89% 29.59 in 6.0 mi SE 31.1 mph 40.3 mph 0.01 in Rain Light Rain
2:16 PM 39.2 °F 27.8 °F 35.6 °F 87% 29.59 in 10.0 mi SSE 27.6 mph 39.1 mph 0.01 in Rain Light Rain
2:56 PM 39.0 °F 27.0 °F 36.0 °F 89% 29.60 in 8.0 mi SE 31.1 mph 40.3 mph 0.01 in Rain Light Rain
3:56 PM 39.0 °F 26.8 °F 35.1 °F 86% 29.59 in 8.0 mi SE 32.2 mph 41.4 mph 0.00 in Rain Light Rain
4:20 PM 39.2 °F 27.2 °F 35.6 °F 87% 29.56 in 10.0 mi SE 31.1 mph 43.7 mph 0.00 in   Mostly Cloudy
4:56 PM 39.9 °F 27.0 °F 36.0 °F 86% 29.58 in 10.0 mi SE 39.1 mph 48.3 mph 0.00 in   Mostly Cloudy
5:56 PM 41.0 °F 29.8 °F 36.0 °F 82% 29.60 in 10.0 mi SE 29.9 mph 39.1 mph N/A   Overcast
6:56 PM 42.1 °F 31.7 °F 37.0 °F 82% 29.60 in 10.0 mi SSE 27.6 mph 41.4 mph N/A   Overcast
7:56 PM 42.1 °F 32.3 °F 37.9 °F 85% 29.60 in 10.0 mi SSE 24.2 mph 33.4 mph N/A   Overcast
8:56 PM 42.1 °F 33.9 °F 37.0 °F 82% 29.60 in 10.0 mi SSE 17.3 mph 24.2 mph N/A   Overcast
9:10 PM 42.8 °F 33.8 °F 37.4 °F 81% 29.58 in 9.0 mi SE 21.9 mph 29.9 mph 0.00 in Rain Light Rain
9:56 PM 42.1 °F 34.5 °F 37.0 °F 82% 29.61 in 9.0 mi SE 15.0 mph 28.8 mph 0.00 in Rain Light Rain
10:56 PM 41.0 °F 31.9 °F 37.0 °F 86% 29.60 in 7.0 mi SSE 19.6 mph 24.2 mph 0.02 in Rain Light Rain
11:56 PM 41.0 °F 31.4 °F 37.0 °F 86% 29.57 in 7.0 mi SE 21.9 mph 31.1 mph 0.02 in Rain Light Rain